Time,TemperatureF,DewpointF,PressureIn,WindDirection,WindDirectionDegrees,WindSpeedMPH,WindSpeedGustMPH,Humidity,HourlyPrecipIn,Conditions,Clouds,dailyrainin,SoftwareType,DateUTC
2016-12-09 00:01:00,29.4,4.7,29.96,NE,48,13.8,34.2,34,0.00,,,0.00,ow4j161019,2016-12-09 08:01:00,
2016-12-09 00:06:00,29.4,4.9,29.96,NE,56,11.7,24.5,35,0.00,,,0.00,ow4j161019,2016-12-09 08:06:00,
2016-12-09 00:11:00,29.4,4.9,29.96,NE,47,12.2,23.9,35,0.00,,,0.00,ow4j161019,2016-12-09 08:11:00,
2016-12-09 00:16:00,29.5,5.1,29.96,ENE,62,10.3,23.9,35,0.00,,,0.00,ow4j161019,2016-12-09 08:16:00,
2016-12-09 00:21:00,29.5,5.7,29.96,NE,55,10.2,22.7,36,0.00,,,0.00,ow4j161019,2016-12-09 08:21:00,
2016-12-09 00:26:00,29.5,6.4,29.96,NE,40,10.9,19.1,37,0.00,,,0.00,ow4j161019,2016-12-09 08:26:00,
2016-12-09 00:31:00,29.4,7.1,29.96,NE,48,11.3,24.6,38,0.00,,,0.00,ow4j161019,2016-12-09 08:31:00,
2016-12-09 00:36:00,29.2,7.8,29.96,NE,41,11.5,25.4,40,0.00,,,0.00,ow4j161019,2016-12-09 08:36:00,
2016-12-09 00:41:00,29.1,8.2,29.96,NE,53,11.5,25.4,41,0.00,,,0.00,ow4j161019,2016-12-09 08:41:00,
2016-12-09 00:46:00,29.0,8.1,29.96,NE,37,12.6,21.3,41,0.00,,,0.00,ow4j161019,2016-12-09 08:46:00,
2016-12-09 00:51:00,29.0,7.7,29.95,NE,49,11.3,27.0,40,0.00,,,0.00,ow4j161019,2016-12-09 08:51:00,
2016-12-09 00:56:00,29.0,7.4,29.95,NE,36,13.7,30.3,39,0.00,,,0.00,ow4j161019,2016-12-09 08:56:00,
2016-12-09 01:01:00,29.0,7.5,29.95,NE,34,9.7,30.3,40,0.00,,,0.00,ow4j161019,2016-12-09 09:01:00,
2016-12-09 01:06:00,29.0,7.6,29.95,NE,37,15.8,34.3,40,0.00,,,0.00,ow4j161019,2016-12-09 09:06:00,
2016-12-09 01:11:00,29.0,7.5,29.95,NNE,26,13.4,34.3,40,0.00,,,0.00,ow4j161019,2016-12-09 09:11:00,
2016-12-09 01:16:00,29.0,7.4,29.95,NE,40,13.3,31.8,39,0.00,,,0.00,ow4j161019,2016-12-09 09:16:00,
2016-12-09 01:21:00,29.1,7.7,29.95,NE,55,14.5,32.8,40,0.00,,,0.00,ow4j161019,2016-12-09 09:21:00,
2016-12-09 01:27:00,29.0,7.9,29.95,NNE,28,10.4,32.8,40,0.00,,,0.00,ow4j161019,2016-12-09 09:27:00,
2016-12-09 01:32:00,29.0,8.0,29.95,NE,48,15.4,31.2,40,0.00,,,0.00,ow4j161019,2016-12-09 09:32:00,
2016-12-09 01:37:00,28.9,8.6,29.95,NE,50,9.9,31.2,42,0.00,,,0.00,ow4j161019,2016-12-09 09:37:00,
2016-12-09 01:42:00,28.7,9.7,29.95,NE,56,12.8,31.2,44,0.00,,,0.00,ow4j161019,2016-12-09 09:42:00,
2016-12-09 01:47:00,28.5,10.9,29.96,NNE,32,14.1,35.9,47,0.00,,,0.00,ow4j161019,2016-12-09 09:47:00,
2016-12-09 01:57:00,27.4,14.5,29.96,NE,45,16.3,30.2,58,0.00,,,0.00,ow4j161019,2016-12-09 09:57:00,
2016-12-09 02:02:00,27.1,15.5,29.96,NE,40,12.6,33.5,61,0.00,,,0.00,ow4j161019,2016-12-09 10:02:00,
2016-12-09 02:07:00,26.9,15.8,29.96,NE,47,12.0,34.7,62,0.00,,,0.00,ow4j161019,2016-12-09 10:07:00,
2016-12-09 02:12:00,26.7,16.4,29.95,NE,46,17.2,34.7,65,0.00,,,0.00,ow4j161019,2016-12-09 10:12:00,
2016-12-09 02:17:00,26.6,16.8,29.95,NE,36,13.2,25.3,66,0.00,,,0.00,ow4j161019,2016-12-09 10:17:00,
2016-12-09 02:22:00,26.3,17.4,29.95,NNE,28,14.9,27.7,69,0.00,,,0.00,ow4j161019,2016-12-09 10:22:00,
2016-12-09 02:27:00,25.9,18.7,29.96,NNE,27,13.5,30.1,74,0.00,,,0.00,ow4j161019,2016-12-09 10:27:00,
2016-12-09 02:32:00,25.4,19.7,29.96,NE,45,10.8,30.1,79,0.00,,,0.00,ow4j161019,2016-12-09 10:32:00,
2016-12-09 02:37:00,25.3,20.1,29.96,NNE,31,14.5,28.8,80,0.00,,,0.00,ow4j161019,2016-12-09 10:37:00,
2016-12-09 02:42:00,25.3,20.0,29.96,NE,37,14.1,22.0,80,0.00,,,0.00,ow4j161019,2016-12-09 10:42:00,
2016-12-09 02:47:00,25.4,19.4,29.96,NNE,28,14.9,21.0,78,0.00,,,0.00,ow4j161019,2016-12-09 10:47:00,